Theta_e
304 304 304 303 303 302 300 297 296 297 298 298 298 299 300 300 300 302 303 303 301 301 301 301 301 301 300 303 305 306 304 301 303 305 307 307 309 310 314 313 312 314 315 313 313 314 314 308 307 317 317 319 319 320
304 303 303 302 301 299 298 297 297 297 298 298 298 298 299 301 301 301 301 303 302 300 301 301 301 301 301 301 303 304 307 306 304 306 303 307 310 310 313 314 311 313 310 311 312 313 308 305 306 307 308 311 320 320
303 302 301 300 296 296 296 296 296 297 297 297 298 298 298 300 301 302 302 302 301 301 301 297 299 302 302 301 300 303 301 302 304 304 306 307 309 309 313 314 312 310 307 308 309 309 308 309 309 316 316 317 319 319
302 301 297 294 295 295 295 296 296 296 297 297 297 298 299 300 300 300 301 302 302 301 302 300 301 302 304 304 301 300 302 301 302 304 306 307 309 309 312 312 313 312 312 312 311 311 311 309 313 314 315 315 316 315
299 294 294 295 294 294 294 295 295 296 296 296 296 297 298 298 299 299 300 301 302 301 303 301 300 303 305 305 303 301 302 302 304 306 308 309 306 312 313 310 311 311 312 314 315 313 312 313 313 314 312 315 315 315
293 293 294 294 294 294 294 295 295 294 295 296 296 298 298 299 300 300 301 303 302 301 300 304 301 302 304 306 305 305 304 304 305 307 308 307 304 312 313 309 307 307 308 309 312 311 312 312 313 314 313 313 312 312
290 292 293 293 293 294 294 294 294 295 296 296 297 297 299 300 301 301 302 302 301 301 301 306 302 302 306 306 307 306 305 306 307 309 310 304 307 312 310 308 307 308 308 310 310 310 311 311 311 311 312 311 311 310
291 293 293 293 293 293 293 294 296 297 296 295 296 299 301 303 302 301 302 302 300 301 304 308 303 302 307 308 310 307 309 308 310 311 307 307 304 305 309 306 308 308 309 309 309 309 309 309 308 307 308 308 309 309
292 292 292 293 293 293 294 295 297 296 295 295 299 304 303 303 302 304 305 306 302 303 308 305 305 302 302 310 310 308 309 313 308 312 307 307 305 306 306 308 309 308 309 308 308 308 308 309 308 306 306 306 307 308
292 292 292 292 293 293 294 296 297 294 294 296 300 303 308 303 301 303 307 307 304 305 307 308 304 302 303 303 306 306 306 310 311 309 307 306 304 305 306 307 306 307 306 308 308 308 307 308 307 305 305 305 305 306
292 292 291 292 292 293 294 295 294 293 293 293 293 299 298 300 303 304 307 308 305 305 304 304 304 304 301 303 304 307 307 303 310 310 313 304 304 306 307 307 306 306 306 307 307 305 305 305 306 304 304 303 303 303
291 291 292 292 293 293 294 294 294 294 294 293 293 294 298 301 301 306 306 308 307 307 305 306 306 302 301 302 305 305 305 303 309 305 310 308 306 306 307 308 306 305 306 307 307 306 305 306 305 304 303 303 302 301
291 291 291 292 293 294 294 293 294 294 293 296 298 300 303 303 304 306 305 308 311 311 312 311 311 308 303 304 303 301 305 305 301 301 307 306 307 308 306 306 305 305 306 307 307 307 306 305 304 303 303 302 301 300
291 291 292 292 293 294 293 292 293 294 294 296 301 303 302 301 302 301 304 306 309 310 310 309 310 310 308 308 304 309 305 301 301 304 306 305 307 307 307 306 305 306 306 307 307 306 305 304 303 303 302 301 300 299
291 292 292 293 293 291 290 292 293 294 293 295 298 301 301 301 300 303 306 306 307 306 309 305 310 310 309 311 307 305 308 305 302 302 299 303 306 308 307 306 305 305 305 307 306 306 305 304 303 302 301 300 299 298
291 291 294 291 290 291 292 292 293 294 294 295 296 298 300 302 301 301 301 302 301 301 301 307 310 311 310 309 308 310 305 302 300 298 301 303 307 308 307 307 306 306 305 304 306 307 305 304 303 302 301 299 298 297
291 291 290 291 291 292 292 294 294 295 294 296 297 297 298 298 300 299 299 300 297 300 304 306 310 309 308 309 308 303 302 301 300 301 301 304 306 306 307 308 307 306 305 304 305 305 304 304 303 301 300 299 298 297
291 290 291 291 292 292 293 293 295 297 296 297 298 296 297 297 299 299 298 297 299 301 306 308 310 310 311 309 306 306 305 303 302 302 303 305 305 306 307 307 307 306 305 304 305 305 304 302 301 300 300 298 297 296
291 291 290 291 292 293 292 292 294 296 296 296 296 295 296 296 296 296 297 298 297 299 302 306 308 311 309 307 307 308 307 306 308 305 304 305 306 306 307 308 308 306 305 305 305 304 304 303 302 301 300 298 296 296
290 291 291 292 291 292 293 292 294 293 296 296 296 297 296 296 296 295 295 296 295 301 303 306 306 307 308 307 306 307 308 306 306 307 306 305 306 306 306 306 305 306 305 305 305 304 303 302 302 301 300 298 297 296
291 291 291 291 291 292 290 291 292 292 292 294 295 294 294 293 293 294 294 293 296 297 300 301 302 303 302 303 304 304 305 306 306 306 306 306 305 306 306 306 306 305 304 304 303 302 303 303 302 300 300 298 297 296
291 291 291 291 291 291 290 291 291 291 292 294 293 294 294 295 296 296 295 295 296 300 301 301 302 302 303 304 304 304 304 305 306 306 306 305 307 305 305 305 305 304 304 305 305 303 303 304 303 300 299 297 296 295
292 292 292 292 293 289 288 291 292 292 295 296 293 294 294 295 297 296 296 296 300 298 299 299 299 301 302 302 303 304 305 305 304 304 305 305 306 307 307 305 306 305 304 305 305 304 303 303 302 300 299 297 296 294
292 292 291 292 293 292 292 292 287 292 292 292 291 294 295 297 297 298 299 301 300 299 299 299 300 301 302 302 303 303 304 304 304 305 305 305 305 305 307 307 306 306 306 305 305 304 302 302 301 300 298 297 295 294
289 286 289 283 288 291 294 295 294 294 293 292 293 293 295 297 298 300 302 298 296 299 298 297 297 299 301 300 301 301 300 300 301 303 304 306 306 306 306 308 307 307 306 305 304 302 302 301 300 299 298 297 296 294
287 287 289 291 291 292 293 293 293 292 292 292 292 294 295 297 298 301 299 293 293 294 294 296 295 297 299 299 300 299 299 299 299 300 303 304 306 307 307 306 306 305 307 306 304 303 301 301 300 299 297 297 297 295
289 286 289 290 292 293 293 292 291 291 293 293 293 296 296 297 297 293 294 292 292 291 292 294 295 295 297 297 298 297 297 298 300 302 303 303 305 307 308 307 307 307 307 306 304 304 302 301 300 300 298 297 297 296
290 290 291 288 292 292 294 294 294 294 293 292 292 295 297 296 291 290 292 290 290 291 292 293 294 295 294 294 296 295 294 295 300 303 303 303 303 303 303 306 307 308 306 305 305 304 304 304 301 300 299 298 297 297
290 288 290 292 292 291 294 294 295 294 292 293 294 295 295 289 289 289 288 288 289 291 292 293 293 293 293 293 292 292 292 291 293 297 299 300 301 301 301 301 303 305 306 305 304 304 305 304 303 301 300 298 297 296
290 289 289 292 294 294 296 295 295 295 293 293 295 294 290 289 287 286 286 287 288 290 290 291 291 290 291 291 291 291 290 289 290 291 293 294 296 296 296 299 300 301 304 305 304 303 302 301 300 298 297 295 295 293
289 290 294 293 293 292 293 294 296 296 295 295 294 294 290 290 288 286 285 285 285 287 287 288 288 288 288 288 289 290 290 288 288 290 291 292 292 293 294 295 297 299 300 301 301 300 298 297 296 295 294 293 292 292
292 294 294 296 293 292 292 294 294 296 292 292 292 293 290 289 288 286 284 284 284 284 285 286 286 287 286 286 286 286 286 286 286 286 288 291 292 292 292 293 295 297 298 298 298 297 296 295 294 293 291 291 290 290
291 293 293 293 290 293 292 294 296 293 290 289 288 289 289 288 286 285 284 283 283 283 283 284 284 285 284 284 283 284 285 287 288 289 290 290 291 292 292 292 292 293 294 294 293 293 293 292 291 291 289 288 288 288
Wind_Speed
23 25 25 24 27 27 28 25 23 23 23 21 20 19 18 15 15 12 10 14 11 3 7 9 7 6 6 4 2 4 7 3 4 6 3 3 2 3 3 3 5 2 2 3 3 4 6 10 11 5 4 5 7 9
23 24 24 27 27 28 25 25 24 24 23 22 20 20 18 17 13 11 9 12 20 6 7 27 35 39 31 25 4 2 3 3 2 2 2 2 3 3 4 3 1 3 2 3 2 2 7 11 13 18 18 13 5 6
23 24 24 26 26 24 24 24 24 24 23 22 21 20 19 17 16 12 16 13 5 3 7 4 7 8 8 25 32 4 3 3 2 2 2 2 4 2 3 3 3 3 5 2 3 3 7 10 18 7 6 13 10 11
23 23 23 23 22 22 23 23 23 23 23 23 23 21 20 18 17 16 14 10 8 2 3 6 9 15 14 13 25 35 3 2 0 1 2 2 3 4 2 3 3 3 5 5 4 5 8 7 17 13 16 17 18 17
21 21 20 19 21 21 22 23 24 24 24 24 23 22 20 19 18 19 21 23 21 6 3 6 19 8 7 10 20 26 13 3 2 1 3 3 3 3 2 2 3 3 3 3 3 8 7 8 13 15 18 17 16 15
18 18 19 20 21 23 23 23 24 26 26 26 25 23 20 17 14 10 3 3 11 16 1 3 5 4 6 2 11 13 8 3 2 2 3 3 4 2 2 3 4 4 5 3 3 5 4 6 9 11 13 15 15 15
18 18 18 20 21 23 24 25 26 27 27 26 26 26 22 16 12 6 2 3 8 15 2 3 4 4 2 2 2 2 5 2 2 2 2 2 3 2 1 2 4 7 7 6 9 4 5 7 5 7 8 9 11 13
16 16 17 19 21 23 25 26 27 27 30 34 29 22 17 11 9 9 17 18 13 5 3 2 4 5 3 1 2 2 3 2 3 2 1 3 3 1 3 5 5 6 6 8 9 7 2 6 10 9 8 10 13 11
14 15 18 19 21 23 24 23 24 29 35 31 19 4 3 3 4 3 9 9 28 5 3 2 2 3 3 2 2 1 2 2 2 2 3 2 2 3 5 4 2 4 3 5 6 7 7 10 10 11 11 11 10 9
13 15 17 19 21 22 20 22 23 31 35 20 6 2 2 2 14 5 6 3 3 4 3 3 2 3 1 1 2 1 1 2 2 3 1 2 4 4 4 5 2 3 5 4 6 7 7 8 9 9 9 9 8 6
13 15 18 19 21 21 17 20 26 33 16 11 8 3 10 14 2 1 2 2 2 3 3 3 4 3 1 2 3 1 1 1 2 2 1 3 3 4 3 3 1 3 5 5 5 5 5 4 6 6 8 11 10 11
14 16 18 19 20 17 17 20 25 23 17 14 16 12 7 2 2 1 3 3 4 4 2 2 3 5 3 1 1 1 2 2 4 3 1 3 4 3 4 4 3 5 6 5 4 7 7 6 7 5 6 8 12 13
15 16 19 20 19 17 16 21 24 24 24 2 4 3 2 2 2 5 4 3 2 2 1 3 3 3 1 1 1 2 2 4 2 2 3 4 2 3 4 4 3 2 4 5 5 8 10 10 12 11 7 11 12 13
16 18 20 20 15 15 21 25 23 22 6 2 2 4 4 4 5 4 3 2 3 3 5 3 4 4 2 2 2 3 2 3 2 2 5 3 4 4 4 4 6 5 5 5 5 5 7 9 9 15 15 15 12 13
17 20 19 7 12 20 24 23 24 12 3 3 3 5 5 4 3 3 2 2 3 3 3 5 2 2 2 2 2 2 2 3 5 5 3 4 5 5 6 5 6 6 6 4 5 5 7 11 12 12 14 15 14 15
16 15 2 14 21 23 22 25 11 3 3 3 5 5 3 2 3 2 2 3 2 3 3 2 1 2 4 2 3 6 5 5 4 4 4 3 4 4 5 5 6 6 5 4 6 6 8 11 12 14 15 15 14 16
12 4 15 22 24 25 24 5 3 4 3 4 4 3 6 4 5 3 3 3 1 2 2 2 2 6 2 2 3 4 4 3 4 4 3 5 7 6 6 4 5 7 7 7 9 9 9 16 19 16 8 12 16 18
8 18 22 22 22 20 5 2 3 3 6 6 4 3 2 3 3 4 3 2 2 2 2 3 2 4 3 3 3 3 3 3 3 4 4 4 5 6 7 6 7 9 7 8 10 14 16 16 12 9 16 16 18 18
18 21 22 18 9 4 3 3 3 4 4 3 4 3 3 4 4 4 4 4 4 4 3 3 4 3 4 3 3 2 2 3 3 3 4 6 5 6 8 10 10 9 10 11 13 14 16 16 17 18 18 16 14 14
17 18 4 3 9 2 3 4 3 3 4 3 3 3 3 4 4 4 4 4 2 3 4 3 4 3 2 2 2 4 4 2 3 3 4 4 5 7 8 10 9 12 14 10 11 15 16 14 18 19 19 19 18 14
11 4 11 6 2 5 2 3 3 3 4 3 4 4 5 3 3 3 3 1 1 3 2 2 4 6 6 7 11 8 6 4 6 5 5 4 4 10 9 13 12 14 8 10 7 10 14 13 19 20 21 19 18 17
6 7 4 3 2 2 3 5 3 4 3 3 4 2 3 3 4 3 1 1 0 1 3 5 7 8 10 11 11 18 18 15 14 11 11 5 2 3 4 10 11 6 10 14 16 15 15 21 24 24 24 24 21 21
7 2 2 2 2 2 6 2 2 3 3 3 4 4 3 3 3 3 2 2 2 3 7 6 10 14 11 18 18 15 14 12 5 5 8 10 12 12 10 14 18 12 7 13 19 20 21 25 27 26 25 25 23 21
2 1 2 2 2 4 3 3 2 3 2 4 3 5 3 3 4 2 2 1 3 6 7 9 8 7 8 9 5 7 13 15 11 10 11 7 4 6 16 16 18 20 23 22 21 20 23 23 28 27 26 24 21 19
2 4 1 4 2 3 3 3 3 2 3 3 3 4 3 1 2 2 2 5 9 6 5 8 7 7 7 7 7 12 17 16 8 9 13 11 5 4 8 15 19 20 23 24 19 18 20 24 24 26 25 25 24 22
1 3 4 3 2 2 3 3 3 3 4 3 3 3 3 2 3 4 3 6 6 7 9 7 7 7 7 9 9 10 19 21 17 7 11 11 14 8 6 7 6 9 24 26 29 26 24 25 25 26 22 26 26 24
2 4 3 3 2 2 3 3 3 2 3 3 3 4 3 4 4 4 4 5 6 18 20 19 16 11 10 14 19 24 24 21 14 10 8 8 2 12 14 9 8 16 26 28 27 31 32 28 26 27 24 25 28 27
3 2 4 3 3 3 3 2 2 2 2 2 2 2 2 4 4 4 3 18 23 23 21 21 21 22 19 20 20 24 29 28 22 8 5 22 25 21 13 3 6 15 25 27 31 31 34 34 29 29 31 29 29 27
3 2 1 4 3 2 3 3 2 2 1 1 1 2 3 2 6 5 11 21 21 19 18 19 22 24 23 23 24 23 27 28 21 16 17 9 7 16 21 15 8 5 15 19 22 30 34 33 36 36 34 32 33 30
3 3 2 2 2 3 4 4 3 3 1 0 2 3 3 2 11 18 20 23 21 18 19 18 20 22 19 19 20 24 26 26 24 15 6 8 12 23 20 16 12 7 2 11 21 21 21 26 25 28 29 28 31 30
2 3 2 3 3 4 4 3 6 4 2 1 0 1 4 3 3 20 28 24 21 20 20 19 19 22 21 20 19 15 14 28 29 30 29 23 24 21 21 19 14 8 3 10 19 22 26 24 25 27 30 28 30 32
3 5 3 3 3 4 3 1 2 2 2 2 3 2 2 2 3 5 23 26 22 19 21 20 19 20 24 24 24 24 22 25 30 30 30 30 29 24 23 23 19 11 9 10 15 19 18 21 22 19 20 25 28 30
2 2 3 2 3 3 3 3 2 3 2 2 2 3 2 2 3 5 14 25 21 20 19 19 20 19 22 25 27 29 29 27 27 29 30 30 28 26 25 23 20 17 15 15 15 15 16 19 21 26 26 25 24 25
Wind_Direction
316 319 318 318 317 319 319 324 326 325 323 321 319 319 321 324 310 308 284 268 214 235 269 243 246 230 274 215 253 324 332 340 334 4 342 328 294 309 299 280 312 304 295 207 215 227 251 10 324 232 11 310 320 303
317 316 314 315 317 320 324 324 320 322 320 321 317 312 313 319 309 305 285 278 241 246 268 285 273 266 250 244 315 268 276 285 241 329 302 296 297 295 305 296 351 303 253 286 263 306 316 299 266 263 259 265 311 302
313 314 315 317 322 324 323 322 322 322 321 321 320 320 311 307 317 308 278 281 240 260 278 301 263 301 238 228 222 206 258 220 244 208 296 280 278 279 305 315 291 261 213 238 305 232 285 318 308 334 59 39 25 19
310 313 319 323 324 323 324 323 323 322 321 319 317 315 312 310 306 306 294 276 226 284 280 280 292 278 285 249 209 210 207 127 83 146 249 251 266 201 281 295 293 250 296 286 258 270 333 354 332 11 34 30 31 17
313 319 322 320 320 322 321 322 322 321 320 319 316 311 305 303 302 298 285 271 244 202 283 291 304 279 316 241 211 199 206 163 214 237 230 246 257 271 248 285 268 318 302 347 334 345 338 7 337 19 22 22 22 13
315 318 321 325 325 324 323 323 323 321 319 316 312 308 304 301 301 310 301 282 214 194 251 288 294 291 321 140 162 169 182 185 207 246 238 265 252 229 310 282 265 290 306 266 303 306 344 319 1 32 39 3 15 12
315 322 327 327 325 326 325 325 323 321 319 320 322 313 300 290 273 217 222 324 173 171 246 272 297 271 322 130 154 144 160 199 203 245 239 249 283 223 198 263 292 324 320 1 13 11 25 25 19 41 65 37 9 11
321 328 328 327 326 327 326 326 327 327 331 330 323 313 300 272 223 246 262 223 180 214 233 275 277 332 185 27 298 154 172 188 201 261 279 240 312 360 258 257 299 316 342 28 27 37 11 46 40 38 44 48 37 359
326 329 327 328 329 330 329 334 336 334 330 327 324 329 120 116 169 230 308 233 198 225 287 209 245 266 342 235 217 248 220 234 138 226 250 138 302 241 221 235 311 348 9 342 32 41 23 39 35 27 30 37 37 11
327 329 326 327 329 331 334 337 334 333 336 337 348 308 173 122 318 293 198 187 157 204 224 252 164 267 63 337 285 92 320 278 269 230 201 192 260 269 249 225 263 351 11 62 66 37 26 29 34 17 26 25 24 357
326 327 326 329 329 329 334 334 338 337 343 353 2 341 303 322 309 226 227 203 137 249 230 245 216 229 262 189 233 141 243 282 293 296 349 299 280 247 232 223 279 116 113 94 110 109 83 82 78 38 22 28 23 17
324 325 325 325 326 325 326 326 335 343 326 298 291 296 287 296 301 211 220 193 197 232 194 198 227 199 264 169 133 197 188 35 251 333 32 274 259 229 174 172 118 141 128 106 68 71 65 76 82 68 35 23 26 25
320 321 320 322 325 323 319 323 331 329 328 304 199 237 230 227 250 212 220 215 212 188 105 281 250 211 207 155 178 96 115 235 8 38 241 234 256 250 168 120 115 159 140 112 96 87 91 99 83 69 54 40 38 36
317 318 316 316 317 318 319 322 326 329 298 273 253 257 208 219 237 205 204 173 71 271 287 288 283 186 155 167 170 157 208 71 11 304 239 250 226 198 174 152 138 173 166 143 116 87 97 102 86 67 55 57 54 42
318 317 320 335 321 316 317 322 321 308 253 257 256 241 237 235 270 268 260 301 250 269 332 321 248 203 160 221 220 113 142 248 205 232 236 243 217 186 161 152 162 161 179 178 151 131 114 115 107 90 78 65 61 58
323 326 82 324 328 328 327 324 318 203 246 233 237 253 265 317 291 333 315 281 292 318 305 237 280 283 236 184 188 215 147 221 249 221 238 265 214 171 154 172 173 174 180 169 163 131 123 120 117 104 88 77 65 68
326 267 318 332 330 325 325 288 236 223 235 242 251 229 253 263 252 250 221 248 259 335 259 143 217 224 165 240 249 174 205 225 230 242 219 213 216 171 182 178 171 182 164 173 143 142 125 134 130 114 100 92 86 78
294 312 317 323 328 327 302 244 258 255 252 245 247 261 221 240 262 271 258 245 148 246 276 245 166 224 214 230 247 234 243 272 258 260 248 229 168 183 190 187 178 185 176 179 154 147 143 136 123 125 122 112 98 89
309 314 320 326 324 304 301 293 248 268 256 271 267 257 245 265 253 252 269 274 216 219 274 257 222 211 230 229 253 285 239 244 283 300 261 259 205 197 207 185 190 180 173 181 162 158 170 162 147 145 138 127 110 104
321 319 315 332 330 285 292 274 265 276 283 289 282 276 272 248 276 265 255 258 205 204 200 228 229 238 245 273 211 245 256 209 200 272 270 259 226 186 209 176 199 196 166 174 157 159 144 144 155 152 148 140 132 129
330 335 336 332 270 230 269 310 289 238 288 292 313 329 288 287 266 280 287 208 105 219 250 2 348 320 314 306 299 276 269 208 233 210 231 242 227 188 196 211 183 175 159 159 162 163 160 163 163 154 145 137 134 135
265 318 320 327 285 271 252 240 230 284 292 275 309 261 262 276 280 247 222 117 90 14 354 329 327 328 319 314 313 309 291 274 248 239 248 180 165 173 180 188 157 171 173 182 177 174 175 175 166 156 145 141 138 134
308 344 304 290 299 295 265 301 265 268 278 296 310 302 301 308 272 327 315 39 44 338 331 316 312 316 309 305 307 314 333 326 269 234 232 228 222 214 188 183 181 172 173 192 188 174 171 177 168 158 151 145 141 135
322 285 308 297 261 276 311 281 254 275 312 331 317 293 318 282 321 303 357 71 351 343 352 339 326 318 326 328 322 323 330 343 323 296 264 215 212 209 197 191 191 192 189 178 175 171 167 163 164 157 156 150 150 146
1 298 193 286 240 273 276 265 273 315 280 287 280 280 269 55 289 279 41 8 333 339 350 352 350 350 358 347 343 340 339 341 325 309 299 260 209 127 169 190 202 195 181 155 159 164 163 161 163 164 163 160 159 159
264 248 168 227 263 211 283 315 295 296 312 287 274 285 337 312 269 46 42 355 328 339 339 354 343 335 344 351 346 342 332 328 317 291 293 286 221 197 185 173 174 191 195 186 166 167 169 170 167 166 166 170 171 165
261 281 230 226 215 286 273 274 284 271 255 268 308 319 335 316 22 7 332 359 330 331 334 341 345 343 341 343 345 346 345 340 325 307 343 35 183 219 211 196 197 195 190 192 180 174 169 171 172 173 169 173 179 179
240 257 220 220 208 219 257 257 254 252 265 260 350 294 346 23 7 326 326 324 331 334 342 348 354 359 358 352 353 0 1 3 20 22 28 47 44 53 54 64 209 207 196 192 185 178 174 182 180 174 172 173 180 190
245 250 254 273 258 228 223 236 245 251 246 100 328 323 65 41 335 321 323 332 341 348 351 352 1 2 3 5 10 10 15 11 14 22 24 8 9 11 15 29 33 160 191 185 187 187 188 186 183 184 179 177 181 182
246 180 216 252 241 238 215 200 230 208 261 275 161 115 130 104 28 18 10 3 358 353 355 2 6 5 3 4 2 7 15 14 16 20 360 0 353 345 353 25 30 36 206 201 185 183 180 174 166 159 159 161 165 167
194 193 237 223 258 249 232 222 238 228 203 105 352 163 127 157 97 32 19 5 358 0 8 9 7 10 7 9 7 3 4 5 15 26 27 19 20 360 6 27 33 41 93 181 181 170 163 156 159 157 157 159 162 161
190 220 227 238 263 279 323 205 195 104 73 67 25 40 90 78 53 27 11 5 5 4 359 3 6 6 12 18 20 19 16 16 22 26 27 28 27 26 29 36 41 57 92 124 151 152 155 153 149 150 151 148 150 150
257 213 220 273 308 314 309 354 253 89 69 88 60 39 61 74 84 26 11 17 9 1 358 4 11 22 25 29 26 27 29 31 33 34 37 40 38 37 44 50 53 60 76 91 102 120 127 127 123 128 127 123 125 132